(40) Harmonia
ephemeris date magn radius delta ra dec elong phase
Today9 May 202511.22.173 AU3.146 AU02h17m+10°57'12.7°5.9°
Opposition2 Jan 20269.02.277 AU1.294 AU06h51m+23°54'179.0°0.4°
(40) Harmonia - 2025-05-09
astro.vanbuitenen.nl


 
-1 year
-1 month
-1 day
Now
+1 day
+1 month
+1 year

The interactive orbit chart above shows the body's path through the solar system and its position at the given date. Green and blue lines are shown perpendicular to the ecliptic plane: Green if the path is above the ecliptic plane, blue if it is below. (Left-click and drag to rotate the view; Right-click and drag to move the view; Use scroll wheel to zoom in our out.)

The orbital elements of Harmonia are:

            e (Eccentricity)                : 0.0460364
            a (Semimajor axis)              : 2.2669577
            i (Inclination)                 : 4.25591
            Ω (Longitude of ascending node) : 94.15595
            ω (Argument of perihelion)      : 269.47054
            M (Mean anomaly)                : 22.93684
            Epoch                           : 2025 May 05

            L (Longitude of perihelion)     : 183.62503
            B (Latitude of perihelion)      : -4.25573
            P (Orbital period in years)     : 3.41            
        

The light curve chart below shows the estimated development of the minor planet's magnitude.


The all-sky chart below shows the path of the minor planet over the same period as the light curve. The current position is marked yellow.





The following chart shows the path of the minor planet in the next few days. The field of view is optimized for (~10x50) binoculars and finderscopes. A more printer-friendly version of the same chart can be found below.




Ephemerides:
Date       Time       RA (2000)    DEC (2000)    delta   radius  elong  phase   PA    magn
2025-05-09 00:00 UT   02 17 36.4   +10 57 48     3.146    2.173   12.7    5.9   239   11.2 
2025-05-09 10:04 UT   02 18 26.5   +11 02 13     3.145    2.173   12.9    6.0   239   11.2 
2025-05-10 00:00 UT   02 19 35.9   +11 08 17     3.144    2.173   13.2    6.1   240   11.2 
2025-05-11 00:00 UT   02 21 35.4   +11 18 42     3.141    2.173   13.6    6.3   240   11.2 
2025-05-12 00:00 UT   02 23 35.0   +11 29 03     3.139    2.173   14.1    6.5   241   11.2 
2025-05-13 00:00 UT   02 25 34.7   +11 39 20     3.137    2.173   14.5    6.7   241   11.2 
2025-05-14 00:00 UT   02 27 34.5   +11 49 32     3.135    2.174   14.9    6.9   242   11.2 
2025-05-15 00:00 UT   02 29 34.4   +11 59 40     3.132    2.174   15.4    7.1   242   11.2 
2025-05-16 00:00 UT   02 31 34.3   +12 09 44     3.129    2.174   15.8    7.3   242   11.2 
2025-05-17 00:00 UT   02 33 34.3   +12 19 43     3.127    2.174   16.2    7.5   243   11.3 
2025-05-18 00:00 UT   02 35 34.3   +12 29 38     3.124    2.175   16.7    7.7   243   11.3 
2025-05-19 00:00 UT   02 37 34.5   +12 39 29     3.121    2.175   17.1    7.9   244   11.3 
2025-05-20 00:00 UT   02 39 34.7   +12 49 15     3.118    2.175   17.6    8.1   244   11.3 
2025-05-21 00:00 UT   02 41 35.0   +12 58 57     3.115    2.176   18.0    8.3   244   11.3 
2025-05-22 00:00 UT   02 43 35.3   +13 08 34     3.112    2.176   18.5    8.5   245   11.3 
2025-05-23 00:00 UT   02 45 35.7   +13 18 06     3.109    2.176   18.9    8.7   245   11.3 
2025-05-24 00:00 UT   02 47 36.2   +13 27 33     3.106    2.176   19.3    8.9   245   11.3 
2025-05-25 00:00 UT   02 49 36.8   +13 36 56     3.102    2.177   19.8    9.1   246   11.3 


    Terminology:
            
    delta:  distance between minor planet and earth in AU
    radius: distance between minor planet and sun in AU
    magn:   magnitude (brightness) estimate    
    ra:     right ascension in hours (24h = 360deg)
    dec:    declination in degrees
    elong:  elongation in degrees (angle sun-earth-minor planet)    
    phase:  phase angle in degrees (angle sun-minor planet-earth)        
    AU:     Astronomical Unit (mean distance between earth and sun: 149597870.7 km
    

Orbital elements provided by the MPC (Minor Planet Center).
Calculations by a modified version of AAPlus, a C# implementation of the AA+ project by PJ Naughter from the algorithms presented in the book "Astronomical Algorithms" by Jean Meeus.
NGC2000 dso catalog and star labels from VizieR as provided by the Strasbourg astronomical Data Center.
Tycho2 catalog from the ESO archive.